Hourly Data Report for July 23, 2021

SALLUIT
QUEBEC
Current Station Operator: ECCC - MSC

62°10'46.005" N
75°40'13.006" W
228.00 m
7117800
71641
MFX

Download Data

Hourly Data (July 2021)
Hourly Data Report for July 23, 2021
TIME
LST
Temp Definition
°C
Dew Point Definition
°C
Rel Hum Definition
%
Precip. Amount Definition
mm

Wind Dir Definition
10's deg

Wind Spd Definition
km/h
Visibility Definition
km
Stn Press Definition
kPa
Hmdx Definition


Wind Chill Definition


Weather Definition


00:00 7.7 6.0 89 0.0 20 35   98.56     LegendNANA
01:00 6.8 5.3 90 0.0 19 37   98.53     LegendNANA
02:00 7.1 5.5 90 0.0 19 35   98.53     LegendNANA
03:00 6.1 4.6 91 0.0 20 39   98.51     LegendNANA
04:00 5.7 4.2 90 0.0 20 38   98.49     LegendNANA
05:00 5.9 3.3 83 0.0 21 34   98.50     LegendNANA
06:00 5.9 3.8 86 0.0 21 33   98.52     LegendNANA
07:00 7.1 4.1 81 0.0 23 45   98.42     LegendNANA
08:00 8.1 4.2 76 0.0 21 38   98.42     LegendNANA
09:00 8.9 4.5 74 0.0 22 43   98.35     LegendNANA
10:00 10.7 5.1 68 0.0 22 44   98.30     LegendNANA
11:00 10.8 4.8 67 0.0 22 44   98.23     LegendNANA
12:00 12.6 5.4 61 0.0 22 43   98.16     LegendNANA
13:00 13.6 5.3 57 0.0 22 44   98.11     LegendNANA
14:00 14.7 5.2 53 0.0 23 44   98.02     LegendNANA
15:00 14.8 5.5 54 0.0 22 42   97.96     LegendNANA
16:00 15.1 4.5 49 0.0 21 43   97.94     LegendNANA
17:00 15.4 3.7 45 0.0 22 39   97.87     LegendNANA
18:00
19:00 14.6 4.7 51 0.0 22 34   97.84     LegendNANA
20:00 13.8 4.8 55 0.0 20 34   97.75     LegendNANA
21:00 13.6 4.8 55 0.0 19 33   97.64     LegendNANA
22:00 14.1 6.1 59 0.0 18 53   97.47     LegendNANA
23:00 14.1 6.6 61 0.0 19 61   97.38     LegendNANA

Notes on Data Quality.

Legend

  • E = Estimated
  • M = Missing
  • NA = Not Available*
  • [empty] = Indicates an unobserved value
Date modified: